Time,TemperatureF,DewpointF,PressureIn,WindDirection,WindDirectionDegrees,WindSpeedMPH,WindSpeedGustMPH,Humidity,HourlyPrecipIn,Conditions,Clouds,dailyrainin,SolarRadiationWatts/m^2,SoftwareType,DateUTC
2013-03-03 00:08:00,18.6,13.0,30.16,WNW,292,2.0,6.0,79,0.00,,,0.00,0,weatherlink.com 1.10,2013-03-03 06:08:00,
2013-03-03 00:23:00,18.6,13.0,30.16,WNW,296,2.0,4.0,79,0.00,,,0.00,0,weatherlink.com 1.10,2013-03-03 06:23:00,
2013-03-03 00:38:00,18.5,13.0,30.16,NW,311,1.0,4.0,79,0.00,,,0.00,0,weatherlink.com 1.10,2013-03-03 06:38:00,
2013-03-03 00:53:00,18.2,13.0,30.16,WNW,286,2.0,4.0,80,0.00,,,0.00,0,weatherlink.com 1.10,2013-03-03 06:53:00,
2013-03-03 01:08:00,18.0,13.0,30.16,WNW,291,2.0,3.0,80,0.00,,,0.00,0,weatherlink.com 1.10,2013-03-03 07:08:00,
2013-03-03 01:23:00,17.9,13.0,30.16,WNW,287,0.0,3.0,80,0.00,,,0.00,0,weatherlink.com 1.10,2013-03-03 07:23:00,
2013-03-03 01:38:00,17.9,13.0,30.16,WNW,287,1.0,3.0,80,0.00,,,0.00,0,weatherlink.com 1.10,2013-03-03 07:38:00,
2013-03-03 01:53:00,17.7,13.0,30.15,WNW,291,2.0,3.0,81,0.00,,,0.00,0,weatherlink.com 1.10,2013-03-03 07:53:00,
2013-03-03 02:08:00,17.6,12.0,30.14,WNW,288,1.0,3.0,80,0.00,,,0.00,0,weatherlink.com 1.10,2013-03-03 08:08:00,
2013-03-03 02:23:00,17.3,12.0,30.14,WNW,288,0.0,2.0,81,0.00,,,0.00,0,weatherlink.com 1.10,2013-03-03 08:23:00,
2013-03-03 02:38:00,16.4,12.0,30.13,West,280,1.0,2.0,82,0.00,,,0.00,0,weatherlink.com 1.10,2013-03-03 08:38:00,
2013-03-03 02:53:00,16.2,12.0,30.13,West,280,1.0,2.0,83,0.00,,,0.00,0,weatherlink.com 1.10,2013-03-03 08:53:00,
2013-03-03 03:08:00,16.4,12.0,30.13,West,280,1.0,2.0,83,0.00,,,0.00,0,weatherlink.com 1.10,2013-03-03 09:08:00,
2013-03-03 03:23:00,16.7,12.0,30.13,WNW,288,1.0,5.0,83,0.00,,,0.00,0,weatherlink.com 1.10,2013-03-03 09:23:00,
2013-03-03 03:38:00,16.5,12.0,30.13,WNW,294,2.0,4.0,83,0.00,,,0.00,0,weatherlink.com 1.10,2013-03-03 09:38:00,
2013-03-03 03:53:00,16.3,12.0,30.13,WNW,288,2.0,4.0,84,0.00,,,0.00,0,weatherlink.com 1.10,2013-03-03 09:53:00,
2013-03-03 04:08:00,16.1,12.0,30.14,WNW,300,3.0,4.0,83,0.00,,,0.00,0,weatherlink.com 1.10,2013-03-03 10:08:00,
2013-03-03 04:23:00,15.9,12.0,30.14,WNW,297,2.0,4.0,84,0.00,,,0.00,0,weatherlink.com 1.10,2013-03-03 10:23:00,
2013-03-03 04:38:00,15.8,12.0,30.14,West,281,1.0,4.0,84,0.00,,,0.00,0,weatherlink.com 1.10,2013-03-03 10:38:00,
2013-03-03 04:53:00,15.4,11.0,30.14,WNW,291,2.0,3.0,84,0.00,,,0.00,0,weatherlink.com 1.10,2013-03-03 10:53:00,
2013-03-03 05:08:00,15.0,11.0,30.14,WNW,289,2.0,3.0,85,0.00,,,0.00,0,weatherlink.com 1.10,2013-03-03 11:08:00,
2013-03-03 05:23:00,15.0,11.0,30.14,WNW,300,2.0,3.0,85,0.00,,,0.00,0,weatherlink.com 1.10,2013-03-03 11:23:00,
2013-03-03 05:38:00,14.9,11.0,30.15,WNW,286,2.0,3.0,85,0.00,,,0.00,0,weatherlink.com 1.10,2013-03-03 11:38:00,
2013-03-03 05:54:00,14.8,11.0,30.15,WNW,292,2.0,3.0,85,0.00,,,0.00,0,weatherlink.com 1.10,2013-03-03 11:54:00,
2013-03-03 06:08:00,14.8,11.0,30.15,WNW,294,2.0,4.0,85,0.00,,,0.00,0,weatherlink.com 1.10,2013-03-03 12:08:00,
2013-03-03 06:23:00,14.5,11.0,30.15,WNW,287,2.0,3.0,85,0.00,,,0.00,0,weatherlink.com 1.10,2013-03-03 12:23:00,
2013-03-03 06:38:00,14.4,11.0,30.15,NW,304,2.0,5.0,85,0.00,,,0.00,11,weatherlink.com 1.10,2013-03-03 12:38:00,
2013-03-03 06:53:00,14.6,11.0,30.15,WNW,289,1.0,4.0,85,0.00,,,0.00,21,weatherlink.com 1.10,2013-03-03 12:53:00,
2013-03-03 07:08:00,15.1,11.0,30.16,WNW,294,1.0,5.0,84,0.00,,,0.00,28,weatherlink.com 1.10,2013-03-03 13:08:00,
2013-03-03 07:24:00,15.5,11.0,30.16,WNW,289,2.0,4.0,83,0.00,,,0.00,33,weatherlink.com 1.10,2013-03-03 13:24:00,
2013-03-03 07:39:00,16.4,12.0,30.16,WNW,290,1.0,3.0,82,0.00,,,0.00,39,weatherlink.com 1.10,2013-03-03 13:39:00,
2013-03-03 07:54:00,17.3,12.0,30.16,WNW,288,1.0,5.0,80,0.00,,,0.00,42,weatherlink.com 1.10,2013-03-03 13:54:00,
2013-03-03 08:09:00,18.4,13.0,30.16,WNW,302,3.0,4.0,79,0.00,,,0.00,46,weatherlink.com 1.10,2013-03-03 14:09:00,
2013-03-03 08:24:00,19.6,13.0,30.16,NNW,348,1.0,4.0,75,0.00,,,0.00,49,weatherlink.com 1.10,2013-03-03 14:24:00,
2013-03-03 08:39:00,21.1,13.0,30.16,WNW,291,2.0,4.0,72,0.00,,,0.00,51,weatherlink.com 1.10,2013-03-03 14:39:00,
2013-03-03 08:54:00,22.3,12.0,30.16,NNW,345,1.0,5.0,64,0.00,,,0.00,53,weatherlink.com 1.10,2013-03-03 14:54:00,
2013-03-03 09:09:00,23.1,11.0,30.15,North,355,1.0,5.0,59,0.00,,,0.00,88,weatherlink.com 1.10,2013-03-03 15:09:00,
2013-03-03 09:24:00,23.4,11.0,30.16,NW,323,3.0,6.0,59,0.00,,,0.00,492,weatherlink.com 1.10,2013-03-03 15:24:00,
2013-03-03 09:39:00,24.5,13.0,30.15,NE,44,3.0,6.0,61,0.00,,,0.00,529,weatherlink.com 1.10,2013-03-03 15:39:00,
2013-03-03 09:54:00,25.5,14.0,30.15,WNW,296,1.0,5.0,61,0.00,,,0.00,557,weatherlink.com 1.10,2013-03-03 15:54:00,
2013-03-03 10:10:00,25.9,14.0,30.15,NE,40,3.0,5.0,61,0.00,,,0.00,519,weatherlink.com 1.10,2013-03-03 16:10:00,
2013-03-03 10:24:00,26.4,14.0,30.15,NE,51,2.0,4.0,60,0.00,,,0.00,413,weatherlink.com 1.10,2013-03-03 16:24:00,
2013-03-03 10:39:00,26.7,14.0,30.15,NNW,346,2.0,6.0,60,0.00,,,0.00,633,weatherlink.com 1.10,2013-03-03 16:39:00,
2013-03-03 10:54:00,26.6,14.0,30.14,NNW,332,2.0,6.0,60,0.00,,,0.00,652,weatherlink.com 1.10,2013-03-03 16:54:00,
2013-03-03 11:09:00,27.2,16.0,30.14,NE,39,2.0,5.0,64,0.00,,,0.00,664,weatherlink.com 1.10,2013-03-03 17:09:00,
2013-03-03 11:24:00,27.2,16.0,30.14,ENE,66,3.0,4.0,63,0.00,,,0.00,677,weatherlink.com 1.10,2013-03-03 17:24:00,
2013-03-03 11:39:00,27.5,16.0,30.14,NNE,26,4.0,6.0,61,0.01,,,0.01,684,weatherlink.com 1.10,2013-03-03 17:39:00,
2013-03-03 11:54:00,27.8,14.0,30.13,NW,320,2.0,5.0,57,0.01,,,0.01,689,weatherlink.com 1.10,2013-03-03 17:54:00,
2013-03-03 12:09:00,28.0,14.0,30.13,NNE,28,3.0,6.0,56,0.01,,,0.01,691,weatherlink.com 1.10,2013-03-03 18:09:00,
2013-03-03 12:24:00,28.1,13.0,30.12,NNW,347,2.0,6.0,54,0.01,,,0.01,686,weatherlink.com 1.10,2013-03-03 18:24:00,
2013-03-03 12:39:00,28.3,15.0,30.12,North,355,2.0,6.0,58,0.01,,,0.02,677,weatherlink.com 1.10,2013-03-03 18:39:00,
2013-03-03 12:54:00,27.7,13.0,30.11,NE,55,2.0,5.0,55,0.02,,,0.03,664,weatherlink.com 1.10,2013-03-03 18:54:00,
2013-03-03 13:09:00,28.1,14.0,30.11,NNE,13,4.0,6.0,55,0.02,,,0.03,650,weatherlink.com 1.10,2013-03-03 19:09:00,
2013-03-03 13:24:00,27.9,14.0,30.11,ENE,66,5.0,7.0,56,0.02,,,0.04,633,weatherlink.com 1.10,2013-03-03 19:24:00,
2013-03-03 13:39:00,27.6,14.0,30.11,ENE,59,3.0,7.0,57,0.02,,,0.04,612,weatherlink.com 1.10,2013-03-03 19:39:00,
2013-03-03 13:54:00,28.0,15.0,30.11,NNW,335,2.0,8.0,59,0.02,,,0.05,587,weatherlink.com 1.10,2013-03-03 19:54:00,
2013-03-03 14:09:00,28.1,16.0,30.10,NNE,28,3.0,7.0,60,0.02,,,0.05,559,weatherlink.com 1.10,2013-03-03 20:09:00,
2013-03-03 14:24:00,27.5,14.0,30.10,NE,50,2.0,8.0,57,0.02,,,0.06,527,weatherlink.com 1.10,2013-03-03 20:24:00,
2013-03-03 14:39:00,27.5,15.0,30.10,NE,50,1.0,8.0,59,0.01,,,0.06,496,weatherlink.com 1.10,2013-03-03 20:39:00,
2013-03-03 14:55:00,27.4,16.0,30.10,ENE,58,3.0,8.0,63,0.02,,,0.07,46,weatherlink.com 1.10,2013-03-03 20:55:00,
2013-03-03 15:10:00,27.0,16.0,30.10,NE,55,3.0,7.0,63,0.02,,,0.07,44,weatherlink.com 1.10,2013-03-03 21:10:00,
2013-03-03 15:25:00,27.0,16.0,30.10,North,9,3.0,6.0,63,0.01,,,0.07,42,weatherlink.com 1.10,2013-03-03 21:25:00,
2013-03-03 15:40:00,26.9,17.0,30.10,NNE,32,3.0,5.0,65,0.01,,,0.07,39,weatherlink.com 1.10,2013-03-03 21:40:00,
2013-03-03 15:55:00,26.7,16.0,30.10,NNE,19,1.0,6.0,65,0.00,,,0.07,37,weatherlink.com 1.10,2013-03-03 21:55:00,
2013-03-03 16:10:00,26.8,17.0,30.10,North,5,4.0,4.0,67,0.00,,,0.07,35,weatherlink.com 1.10,2013-03-03 22:10:00,
2013-03-03 16:25:00,26.5,17.0,30.10,NNE,17,2.0,5.0,67,0.00,,,0.07,32,weatherlink.com 1.10,2013-03-03 22:25:00,
2013-03-03 16:40:00,26.4,17.0,30.11,ENE,57,1.0,4.0,68,0.00,,,0.07,28,weatherlink.com 1.10,2013-03-03 22:40:00,
2013-03-03 16:55:00,26.0,17.0,30.10,East,83,2.0,4.0,69,0.00,,,0.07,25,weatherlink.com 1.10,2013-03-03 22:55:00,
2013-03-03 17:10:00,25.7,17.0,30.11,NNE,31,1.0,3.0,69,0.00,,,0.07,19,weatherlink.com 1.10,2013-03-03 23:10:00,
2013-03-03 17:25:00,25.5,17.0,30.11,NNE,13,3.0,3.0,71,0.00,,,0.07,12,weatherlink.com 1.10,2013-03-03 23:25:00,
2013-03-03 17:40:00,25.1,17.0,30.11,North,355,0.0,4.0,71,0.00,,,0.07,5,weatherlink.com 1.10,2013-03-03 23:40:00,
2013-03-03 17:55:00,25.0,17.0,30.12,ENE,60,0.0,3.0,71,0.00,,,0.07,0,weatherlink.com 1.10,2013-03-03 23:55:00,
2013-03-03 18:10:00,24.6,17.0,30.12,NNE,31,0.0,3.0,72,0.00,,,0.07,0,weatherlink.com 1.10,2013-03-04 00:10:00,
2013-03-03 18:25:00,24.5,16.0,30.12,NNE,30,0.0,1.0,71,0.00,,,0.07,0,weatherlink.com 1.10,2013-03-04 00:25:00,
2013-03-03 18:40:00,24.3,16.0,30.12,NNE,30,0.0,2.0,71,0.00,,,0.07,0,weatherlink.com 1.10,2013-03-04 00:40:00,
2013-03-03 18:55:00,24.5,16.0,30.12,North,351,1.0,2.0,71,0.00,,,0.07,0,weatherlink.com 1.10,2013-03-04 00:55:00,
2013-03-03 19:10:00,24.3,16.0,30.12,North,355,1.0,2.0,71,0.00,,,0.07,0,weatherlink.com 1.10,2013-03-04 01:10:00,
2013-03-03 19:25:00,24.1,16.0,30.13,ENE,75,1.0,4.0,71,0.00,,,0.07,0,weatherlink.com 1.10,2013-03-04 01:25:00,
2013-03-03 19:40:00,24.0,16.0,30.12,ENE,75,1.0,2.0,71,0.00,,,0.07,0,weatherlink.com 1.10,2013-03-04 01:40:00,
2013-03-03 19:55:00,23.7,16.0,30.13,ENE,75,0.0,0.0,73,0.00,,,0.07,0,weatherlink.com 1.10,2013-03-04 01:55:00,
2013-03-03 20:10:00,23.5,16.0,30.12,ENE,75,1.0,1.0,73,0.00,,,0.07,0,weatherlink.com 1.10,2013-03-04 02:10:00,
2013-03-03 20:25:00,23.5,16.0,30.12,ENE,75,0.0,1.0,73,0.00,,,0.07,0,weatherlink.com 1.10,2013-03-04 02:25:00,
2013-03-03 20:40:00,23.4,16.0,30.12,ENE,57,0.0,1.0,73,0.00,,,0.07,0,weatherlink.com 1.10,2013-03-04 02:40:00,
2013-03-03 20:55:00,23.6,15.0,30.12,NW,318,0.0,1.0,71,0.00,,,0.07,0,weatherlink.com 1.10,2013-03-04 02:55:00,
2013-03-03 21:11:00,23.5,15.0,30.13,NW,318,0.0,1.0,71,0.00,,,0.07,0,weatherlink.com 1.10,2013-03-04 03:11:00,
2013-03-03 21:25:00,22.6,15.0,30.13,NW,318,0.0,2.0,74,0.00,,,0.07,0,weatherlink.com 1.10,2013-03-04 03:25:00,
2013-03-03 21:40:00,21.6,15.0,30.14,NW,318,0.0,1.0,77,0.00,,,0.07,0,weatherlink.com 1.10,2013-03-04 03:40:00,
2013-03-03 21:55:00,21.0,15.0,30.13,NW,318,0.0,1.0,78,0.00,,,0.07,0,weatherlink.com 1.10,2013-03-04 03:55:00,
2013-03-03 22:10:00,20.8,15.0,30.14,NW,318,0.0,1.0,78,0.00,,,0.07,0,weatherlink.com 1.10,2013-03-04 04:10:00,
2013-03-03 22:25:00,20.6,15.0,30.14,NW,318,0.0,1.0,78,0.00,,,0.07,0,weatherlink.com 1.10,2013-03-04 04:25:00,
2013-03-03 22:40:00,20.4,15.0,30.14,NW,318,0.0,0.0,79,0.00,,,0.07,0,weatherlink.com 1.10,2013-03-04 04:40:00,
2013-03-03 22:55:00,20.0,15.0,30.14,NW,318,0.0,0.0,79,0.00,,,0.07,0,weatherlink.com 1.10,2013-03-04 04:55:00,
2013-03-03 23:10:00,19.7,15.0,30.13,NW,318,0.0,0.0,80,0.00,,,0.07,0,weatherlink.com 1.10,2013-03-04 05:10:00,
2013-03-03 23:25:00,19.7,15.0,30.12,NW,318,0.0,0.0,80,0.00,,,0.07,0,weatherlink.com 1.10,2013-03-04 05:25:00,
2013-03-03 23:40:00,19.4,14.0,30.13,NW,318,0.0,0.0,80,0.00,,,0.07,0,weatherlink.com 1.10,2013-03-04 05:40:00,
2013-03-03 23:55:00,19.7,15.0,30.13,NW,318,0.0,0.0,80,0.00,,,0.07,0,weatherlink.com 1.10,2013-03-04 05:55:00,